www.pogodaiklimat.ru
ПОГОДА в Холме
Время
(UTC), дата
00 5.08
03 5.08
06 5.08
09 5.08
12 5.08
15 5.08
18 5.08
21 5.08
00 6.08
03 6.08
06 6.08
09 6.08
12 6.08
15 6.08
18 6.08
21 6.08
00 7.08
03 7.08
06 7.08
09 7.08
12 7.08
15 7.08
18 7.08
21 7.08
00 8.08
03 8.08
06 8.08
09 8.08
12 8.08
15 8.08
18 8.08
21 8.08
00 9.08
03 9.08
06 9.08
09 9.08
12 9.08
15 9.08
18 9.08
21 9.08
00 10.08
03 10.08
06 10.08
09 10.08
12 10.08
15 10.08
18 10.08
21 10.08
00 11.08
03 11.08
06 11.08
09 11.08
12 11.08
15 11.08
18 11.08
21 11.08
Ветер
(напр.,м/с)
Видим. Явления Облачность Т
(С)
Тd
(С)
f
(%)
Тe
(С)
Тes
(С)
Комфортность P
(гПа)
Po
(гПа)
Тmin
(С)
Tmax
(С)
R
(мм)
R24
(мм)
S
(см)
ЮВ 2 20 км 8/0
[Ac trans]
+19.6 +13.4 67 +22 +22 комфорт 1012.7 1004.4
Ю 2 20 км 10/4 600 м
[Cb cap Ac As]
+18.6 +13.7 73 +20 +20 1012.7 1004.4 +18.5
Ю 3 20 км 8/0
[Ac trans]
+20.6 +14.8 69 +24 +26 комфорт 1013.2 1004.9 +18.5
ЮЗ 2 20 км 10/3 600 м
[Cb cap Ac As]
+21.6 +15.7 69 +25 +28 комфорт 1015.3 1007.0
ЮЗ 2 20 км {ливн. дождь} 10/6 700 м
[Cb cap Ac As]
+20.3 +17.9 86 +24 +25 комфорт 1017.0 1008.7
З 2 20 км 9/8 700 м
[Cb cap Ac trans]
+21.4 +16.7 75 +25 +26 комфорт 1017.9 1009.6 0.5
штиль 0 20 км 8/0
[Ac trans]
+18.3 +17.0 92 +19 +19 1019.5 1011.1 +23.4 0.5
штиль 0 4000 м дымка 3/0
[Ac trans]
+11.9 +11.7 99 +11 +11 1020.8 1012.2
штиль 0 4000 м дымка 4/0
[Ac trans]
+8.7 +8.7 100 +8 +8 1022.3 1013.6
штиль 0 1000 м дымка 3/0
[Ac trans]
+7.3 +7.3 100 +6 +6 1023.5 1014.7 +6.7
ЮЗ 1 20 км 4/0
[Ac trans]
+19.4 +14.9 75 +22 +27 комфорт 1024.0 1015.6 +6.7
ЮЗ 2 20 км 8/8 840 м
[Cu med, cong]
+23.1 +13.6 55 +26 +29 жарко 1024.5 1016.2
З 2 20 км 8/8 960 м
[Cu hum]
+23.0 +12.0 50 +26 +28 жарко 1024.9 1016.6
СЗ 2 20 км 8/0
[Ac trans Ci fib]
+23.6 +11.1 45 +25 +27 комфорт 1024.9 1016.6
штиль 0 20 км 8/0
[Ac trans Ci fib]
+16.9 +13.8 82 +17 +17 1025.7 1017.2 +24.9
ЮЗ 1 20 км 6/0
[Ac trans]
+13.4 +13.2 99 +13 +13 1026.9 1018.3
штиль 0 20 км 8/0
[Ac trans]
+13.0 +13.0 100 +12 +12 1027.2 1018.6
Ю 1 20 км 10/0
[Ac As]
+13.9 +13.9 100 +14 +14 1027.7 1019.1 +11.5
Ю 1 20 км 9/0
[Ac trans]
+18.6 +15.3 81 +21 +23 комфорт 1027.8 1019.3 +11.5
ЮВ 1 20 км 9/3 600 м
[Cb cap Ac trans]
+22.1 +15.4 66 +26 +31 душно 1027.2 1018.9
В 1 20 км 9/4 600 м
[Cb cap Ac trans]
+22.9 +16.2 66 +27 +31 душно 1026.7 1018.4
С 1 20 км 9/3 600 м
[Cb cap Ac trans]
+23.2 +17.1 69 +28 +30 душно 1026.3 1018.0
штиль 0 10 км 4/0
[Ac trans Ci fib]
+18.3 +17.5 95 +19 +19 1026.1 1017.7 +24.7
штиль 0 500 м туман ясно +13.1 +13.1 100 +12 +12 1026.3 1017.7
штиль 0 500 м туман ясно +10.8 +10.8 100 +10 +10 1026.8 1018.1
штиль 0 500 м туман 3/0
[Ci fib]
+10.8 +10.8 100 +10 +10 1026.3 1017.6 +10.3
штиль 0 10 км {туман} 1/1 600 м
[Cu hum]
+18.1 +18.1 100 +18 +25 1026.1 1017.7 +10.3
СЗ 1 20 км 3/3 600 м
[Cu med, cong]
+24.9 +17.0 62 +29 +38 душно 1024.6 1016.4
З 2 20 км 3/3 600 м
[Cu med, cong]
+25.5 +16.5 57 +29 +36 душно 1023.0 1014.8
СЗ 2 20 км 1/0
[Ac trans]
+25.6 +16.4 57 +29 +32 душно 1021.7 1013.5
штиль 0 20 км ясно +17.0 +15.8 93 +17 +17 1021.4 1013.0 +26.6
штиль 0 4000 м дымка ясно +12.3 +12.1 99 +12 +12 1021.3 1012.7
штиль 0 1000 м дымка ясно +10.3 +10.3 100 +9 +9 1021.2 1012.5
З 1 1000 м дымка 4/0
[Ac trans]
+10.1 +10.1 100 +9 +10 1020.9 1012.2 +9.4
З 1 20 км 9/0
[Ac trans]
+17.7 +16.3 92 +19 +22 1020.6 1012.2 +9.4
СВ 1 20 км 8/3 600 м
[Cu med, cong Ac trans]
+24.5 +18.6 70 +29 +35 душно 1019.8 1011.6
С 1 20 км 8/4 600 м
[Cu med, cong Ac trans]
+25.6 +17.3 60 +30 +34 душно 1018.5 1010.3
ЮЗ 1 20 км {гроза, ливн. дождь} 8/6 660 м
[Cb calv Ac trans]
+20.3 +19.4 95 +25 +26 комфорт 1018.0 1009.7 5
штиль 0 4000 м дымка {гроза, ливн. дождь} 8/0
[Ac lent Ci ing]
+17.3 +16.9 97 +17 +17 1018.0 1009.6 +27.2 5
штиль 0 500 м туман 4/0
[Ac trans]
+13.2 +13.2 100 +13 +13 1018.0 1009.5
штиль 0 500 м туман 3/0
[Ac trans]
+11.0 +11.0 100 +10 +10 1017.9 1009.3
штиль 0 500 м туман 1/0
[Ci fib]
+9.9 +9.9 100 +9 +9 1017.9 1009.3 +9.5
Ю 1 20 км {туман} 6/3 600 м
[Cb cap Ac trans]
+19.9 +17.5 86 +24 +27 комфорт 1016.9 1008.6 +9.5
ЮЗ 2 20 км гроза без осадков {ливн. дождь} 8/6 840 м
[Cb calv Ac trans]
+23.6 +18.5 73 +28 +31 душно 1016.4 1008.2
Ю 3 20 км гроза без осадков {ливн. дождь} 9/6 800 м
[Cb calv Ac trans Ci fib]
+23.4 +17.8 71 +29 +31 душно 1015.3 1007.1
З 2 20 км гроза без осадков {ливн. дождь} 9/4 600 м
[Cb calv Ac trans Ci fib]
+18.4 +17.1 92 +20 +20 1015.8 1007.4 11
ЮВ 1 4000 м дымка {гроза, ливн. дождь} 6/0
[Ac trans Ci fib]
+16.2 +15.8 97 +17 +17 1016.1 1007.7 +25.7 11
С 1 20 км 6/0
[Ac trans]
+14.7 +14.1 96 +15 +15 1017.2 1008.7
СЗ 1 20 км 3/0
[Ac trans]
+11.6 +11.6 100 +11 +11 1018.5 1009.9
З 1 4000 м дымка 3/0
[Ac trans]
+7.3 +7.3 100 +6 +6 1019.0 1010.3 +7.1
З 2 20 км 9/3 600 м
[Cb cap Ac trans]
+12.3 +11.5 95 +11 +13 1019.1 1010.5 +7.1
СЗ 2 20 км 9/4 600 м
[Cb cap Ac trans]
+16.2 +11.5 74 +16 +20 1018.9 1010.4
С 1 10 км слаб. ливневой дождь 9/8 960 м
[Cb cap Ac trans]
+16.1 +12.2 78 +17 +18 1019.1 1010.6
СЗ 1 20 км {ливн. дождь} 9/4 600 м
[Cb cap Ac trans]
+15.2 +10.1 72 +16 +17 1019.3 1010.8 0.3
СЗ 2 20 км в посл. час ливневой дождь 9/4 600 м
[Cb cap Ac trans]
+12.7 +10.2 85 +12 +12 1019.6 1011.0 +18.0 0.3
СЗ 2 10 км слаб. ливневой дождь 10/10 450 м
[Cb cap]
+11.7 +10.8 94 +10 +10 1019.3 1010.7
Местоположение метеостанции Холм (Новгородская область, Россия): широта 57.15 долгота 31.18 высота над уровнем моря 71 м.
В архиве по умолчанию представлена погода в Холме за последнюю неделю. Архивные данные за месяц целиком и за предыдущие месяцы, начиная с января 2011 года, Вы можете получить, выбрав интересующий диапазон дат из раскрывающегося списка и нажав кнопку "Найти!".
*Определитесь, кто Вы:
Внимание! Время в таблицах - всемирное. Для получения местного времени необходимо прибавить поправку, которая равна 3 ч.
Смотрите также архив погоды в соседних городах и на ближайших метеорологических станциях:
Партнеры нашего сайта:      
Пояснения к столбцам:
  • Ветер - указаны скорость ветра в м/с - средняя за 10 мин, порывы в срок и между сроками (в фигурных скобках) и направление, откуда дует ветер: С - северный,
  • СВ - северо-восточный, В - восточный, ЮВ - юго-восточный, Ю - южный, ЮЗ - юго-западный, З - западный, СЗ - северо-западный.
  • Видимость - горизонтальная дальность видимости в метрах или километрах. При видимости от 1 до 10 км при отсутствии осадков обычно наблюдается дымка, при ухудшении видимости до 1 км и менее - туман. В сухую погоду видимость может ухудшаться дымом, пылью или мглою.
  • Явления - указаны атмосферные явления, наблюдавшиеся в срок или в последний час перед сроком; фигурными скобками обозначены явления, наблюдавшиеся между сроками (за 1-3 часа до срока); квадратными скобками обозначены град или гололедные отложения с указанием их диаметра в мм.
  • Облачность - указаны через наклонную черту общая и нижняя облачность в баллах и высота нижней границы облаков в метрах; квадратными скобками обозначены формы облаков: Ci - перистые, Cs - перисто-слоистые, Cc - перисто-кучевые, Ac - высококучевые, As - высокослоистые, Sc - слоисто-кучевые, Ns - слоисто-дождевые, Cu - кучевые, Cb - кучево-дождевые. Подробнее классификацию облаков см. в Атласе облаков (PDF).
  • T - Температура воздуха - температура, измеренная на высоте 2 м над землей.
  • Td - Температура точки росы - температура, при понижении до которой содержащийся в воздухе водяной пар достигнет насыщения.
  • f - Относительная влажность воздуха - влажноcть воздуха, измеренная на высоте 2 м над землей.
  • Te - Эффективная температура - температура, которую ощущает одетый по сезону человек в тени. Характеристика душности погоды. При расчете учитывается влияние влажности воздуха и скорости ветра на теплоощущения человека.
  • Tes - Эффективная температура на солнце - температура, которую ощущает человек, с поправкой на солнечный нагрев. Характеристика знойности погоды. Зависит от высоты солнца над горизонтом, облачности и скорости ветра. Ночью, в пасмурную погоду, а также при ветре 12 м/с и более поправка равна нулю.
  • P - Атмосферное давление - приведенное к уровню моря атмосферное давление.
  • Po - Атмосферное давление - измеренное на уровне метеостанции атмосферное давление.
  • Tmin - Минимальная температура - минимум температуры воздуха на высоте 2 м над землей.
  • Tmax - Максимальная температура - максимум температуры воздуха на высоте 2 м над землей.
  • R - Количество осадков - Количество выпавших осадков за период времени, мм. При наведении курсора мыши на число - период времени, за который выпало указанное количество осадков.
  • R24 - Количество осадков - Количество выпавших осадков за 24 часа, мм.
  • S - Снежный покров - Высота снежного покрова, см. При наведении курсора мыши на число - состояние снежного покрова и степень покрытия местности в баллах.